Denver, Colorado
Traffic Map
Current Weather Conditions
Denver, Colorado
Scattered Clouds
Scattered Clouds
12°
Feels Like: 12°
Wind Chill: 12° Ceiling: Unl
Heat Index: 12° Visibility: 10mi
Dew Point: -4° Wind: 12mph
Humidity: 32% Direction: 160° (SSE)
Pressure: 30.17in Gusts: 0mph
Raw Report DataKBKF 300158Z 16010KT 10SM SCT200 12/M04 A3017 RMK AO2A SLP187 T01221041
Traffic Incident Summary
Active as of:
Severity:
Category:
InformationThere was an issue retrieving the traffic information for this location. Please try a different location or try again shortly.
Advertisements
Track Severe Weather on mobile